SN85XP EPWR-EPWR

Flight info

Callsign SN85XP
Flight time 0h 36m
Altitude 1500
Route DCT 5108N01656E 5108N01700E 5108N01703E 5106N01702E 5103N01658E DCT EPWRS DCT EPWRG DCT 5101N01645E DCT EPWRK DCT 5057N01621E DCT EPWRK DCT EPWRS DCT
Aircraft B407/L-SG/S

Departure

Time 2026-05-05 17:53
Airport Copernicus Wrocław Airport (EPWR)

Arrival

Time 2026-05-05 18:30
Airport Copernicus Wrocław Airport (EPWR)
Time Latitude Longitude Altitude Speed Heading
2026-05-05 17:46 51.10680 16.91670 371 ft 0 kts 355°
2026-05-05 17:52 51.10687 16.91675 442 ft 2 kts
2026-05-05 17:53 51.10712 16.91684 517 ft 10 kts
2026-05-05 17:53 51.10908 16.91804 674 ft 48 kts 20°
2026-05-05 17:53 51.11248 16.92102 831 ft 60 kts 24°
2026-05-05 17:53 51.11653 16.92438 1012 ft 72 kts 19°
2026-05-05 17:54 51.12167 16.92761 1068 ft 85 kts 10°
2026-05-05 17:54 51.12768 16.93036 1042 ft 94 kts 13°
2026-05-05 17:54 51.13364 16.93405 1082 ft 91 kts 20°
2026-05-05 17:54 51.13951 16.93814 1091 ft 94 kts 20°
2026-05-05 17:55 51.14429 16.94483 1118 ft 89 kts 95°
2026-05-05 17:55 51.14032 16.94882 1215 ft 87 kts 219°
2026-05-05 17:55 51.13843 16.94084 993 ft 82 kts 322°
2026-05-05 17:55 51.14294 16.94031 934 ft 79 kts 54°
2026-05-05 17:56 51.14165 16.94902 1016 ft 93 kts 170°
2026-05-05 17:56 51.13805 16.94432 1050 ft 80 kts 297°
2026-05-05 17:56 51.14207 16.93982 942 ft 80 kts 20°
2026-05-05 17:56 51.14421 16.94713 1023 ft 90 kts 128°
2026-05-05 17:57 51.13904 16.94807 1113 ft 83 kts 243°
2026-05-05 17:57 51.13943 16.93994 1022 ft 81 kts 333°
2026-05-05 17:57 51.14455 16.94195 942 ft 93 kts 54°
2026-05-05 17:57 51.14245 16.95060 1070 ft 100 kts 175°
2026-05-05 17:58 51.13815 16.94470 1181 ft 91 kts 283°
2026-05-05 17:58 51.14247 16.93884 1146 ft 92 kts
2026-05-05 17:58 51.14647 16.94638 1112 ft 107 kts 88°
2026-05-05 17:58 51.14200 16.95672 1163 ft 118 kts 121°
2026-05-05 17:59 51.13765 16.96775 1143 ft 117 kts 98°
2026-05-05 17:59 51.13522 16.97979 1060 ft 116 kts 85°
2026-05-05 17:59 51.13493 16.99250 1026 ft 113 kts 70°
2026-05-05 17:59 51.13242 17.00319 1155 ft 105 kts 148°
2026-05-05 18:00 51.12648 17.00101 1121 ft 92 kts 253°
2026-05-05 18:00 51.12806 16.99249 1150 ft 85 kts 322°
2026-05-05 18:00 51.13332 16.98806 1241 ft 89 kts 354°
2026-05-05 18:00 51.13824 16.99242 1225 ft 88 kts 95°
2026-05-05 18:01 51.13356 16.99809 1198 ft 103 kts 195°
2026-05-05 18:01 51.13002 16.99096 1170 ft 81 kts 305°
2026-05-05 18:01 51.13481 16.98933 1072 ft 88 kts 34°
2026-05-05 18:01 51.13585 16.99828 1126 ft 94 kts 140°
2026-05-05 18:02 51.13062 16.99782 1108 ft 78 kts 265°
2026-05-05 18:02 51.13297 16.99169 1047 ft 80 kts 347°
2026-05-05 18:02 51.13668 16.99714 1132 ft 93 kts 96°
2026-05-05 18:02 51.13166 17.00316 1250 ft 101 kts 201°
2026-05-05 18:03 51.12909 16.99567 1283 ft 81 kts 308°
2026-05-05 18:03 51.13394 16.99041 1217 ft 93 kts 355°
2026-05-05 18:03 51.13808 16.99635 1229 ft 95 kts 103°
2026-05-05 18:03 51.13255 17.00151 1226 ft 101 kts 207°
2026-05-05 18:04 51.12947 16.99417 1201 ft 79 kts 304°
2026-05-05 18:04 51.13359 16.99033 1165 ft 73 kts 27°
2026-05-05 18:04 51.13460 16.99688 1291 ft 77 kts 114°
2026-05-05 18:04 51.13200 17.00583 1265 ft 99 kts 97°
2026-05-05 18:05 51.12950 17.01693 1229 ft 114 kts 100°
2026-05-05 18:05 51.12605 17.02882 1224 ft 120 kts 100°
2026-05-05 18:05 51.12836 17.03632 1379 ft 80 kts 326°
2026-05-05 18:05 51.12871 17.02853 1359 ft 87 kts 184°
2026-05-05 18:06 51.12245 17.02825 1001 ft 108 kts 186°
2026-05-05 18:06 51.11844 17.02418 987 ft 96 kts 252°
2026-05-05 18:06 51.12304 17.01882 1096 ft 82 kts 20°
2026-05-05 18:06 51.12767 17.02418 1232 ft 92 kts 48°
2026-05-05 18:07 51.12915 17.03525 1189 ft 113 kts 86°
2026-05-05 18:07 51.12618 17.04772 1170 ft 128 kts 117°
2026-05-05 18:07 51.11937 17.04855 1087 ft 96 kts 259°
2026-05-05 18:07 51.12153 17.04042 1259 ft 85 kts 313°
2026-05-05 18:08 51.12577 17.03282 1271 ft 98 kts 301°
2026-05-05 18:08 51.12931 17.02281 1287 ft 106 kts 270°
2026-05-05 18:08 51.12667 17.01624 1373 ft 59 kts 95°
2026-05-05 18:08 51.12559 17.02305 1262 ft 89 kts 69°
2026-05-05 18:09 51.12736 17.03435 1041 ft 118 kts 73°
2026-05-05 18:09 51.12613 17.04606 1001 ft 118 kts 142°
2026-05-05 18:09 51.11927 17.04339 972 ft 100 kts 253°
2026-05-05 18:09 51.11961 17.03391 1149 ft 88 kts 286°
2026-05-05 18:10 51.12103 17.02372 1303 ft 100 kts 294°
2026-05-05 18:10 51.12601 17.01830 1331 ft 96 kts 14°
2026-05-05 18:10 51.12919 17.02763 1308 ft 117 kts 87°
2026-05-05 18:10 51.12509 17.03938 1272 ft 132 kts 141°
2026-05-05 18:11 51.11624 17.04293 1212 ft 131 kts 165°
2026-05-05 18:11 51.10697 17.04266 1162 ft 133 kts 187°
2026-05-05 18:11 51.09819 17.04005 1118 ft 124 kts 205°
2026-05-05 18:11 51.09500 17.03068 1123 ft 88 kts 313°
2026-05-05 18:12 51.09918 17.03382 1169 ft 101 kts 75°
2026-05-05 18:12 51.09636 17.04521 1108 ft 121 kts 115°
2026-05-05 18:12 51.09160 17.05626 1047 ft 121 kts 110°
2026-05-05 18:12 51.09359 17.06286 1250 ft 69 kts 323°
2026-05-05 18:13 51.09626 17.05530 1128 ft 101 kts 269°
2026-05-05 18:13 51.09620 17.04372 1054 ft 101 kts 267°
2026-05-05 18:13 51.09636 17.03307 1196 ft 89 kts 302°
2026-05-05 18:13 51.10077 17.03187 1203 ft 86 kts 51°
2026-05-05 18:14 51.09783 17.04047 1223 ft 110 kts 163°
2026-05-05 18:14 51.09272 17.03485 1311 ft 92 kts 275°
2026-05-05 18:14 51.09687 17.02905 1286 ft 89 kts
2026-05-05 18:14 51.10204 17.03406 1325 ft 98 kts 55°
2026-05-05 18:15 51.10200 17.04540 1328 ft 110 kts 98°
2026-05-05 18:15 51.10459 17.05350 1425 ft 81 kts 346°
2026-05-05 18:15 51.10683 17.04635 1429 ft 94 kts 220°
2026-05-05 18:15 51.10295 17.03805 1314 ft 96 kts 265°
2026-05-05 18:16 51.10508 17.03069 1453 ft 71 kts 354°
2026-05-05 18:16 51.10845 17.03575 1406 ft 88 kts 79°
2026-05-05 18:16 51.10517 17.04518 1311 ft 114 kts 140°
2026-05-05 18:16 51.09729 17.04541 1274 ft 118 kts 214°
2026-05-05 18:17 51.09613 17.03552 1419 ft 90 kts 317°
2026-05-05 18:17 51.10173 17.03414 1457 ft 89 kts 26°
2026-05-05 18:17 51.10406 17.04355 1403 ft 109 kts 91°
2026-05-05 18:17 51.09895 17.05337 1328 ft 122 kts 133°
2026-05-05 18:18 51.09163 17.05656 1367 ft 108 kts 218°
2026-05-05 18:18 51.09139 17.04793 1476 ft 78 kts 316°
2026-05-05 18:18 51.09519 17.04137 1541 ft 68 kts 314°
2026-05-05 18:18 51.09820 17.03566 1358 ft 70 kts 334°
2026-05-05 18:19 51.10262 17.03584 1283 ft 72 kts 48°
2026-05-05 18:19 51.10075 17.04320 1335 ft 95 kts 154°
2026-05-05 18:19 51.09409 17.04086 1400 ft 107 kts 224°
2026-05-05 18:19 51.08881 17.03220 1549 ft 112 kts 233°
2026-05-05 18:20 51.08358 17.02261 1532 ft 120 kts 229°
2026-05-05 18:20 51.07780 17.01286 1434 ft 120 kts 225°
2026-05-05 18:20 51.07198 17.00389 1450 ft 112 kts 223°
2026-05-05 18:20 51.06578 16.99608 1452 ft 117 kts 214°
2026-05-05 18:21 51.05833 16.98938 1293 ft 126 kts 206°
2026-05-05 18:21 51.05074 16.98333 1259 ft 123 kts 204°
2026-05-05 18:21 51.04425 16.97563 1298 ft 108 kts 256°
2026-05-05 18:21 51.04391 16.96588 1365 ft 77 kts 330°
2026-05-05 18:22 51.04793 16.96332 1490 ft 60 kts 18°
2026-05-05 18:22 51.05126 16.96789 1524 ft 72 kts 65°
2026-05-05 18:22 51.05187 16.97658 1483 ft 91 kts 103°
2026-05-05 18:22 51.04779 16.98548 1315 ft 114 kts 142°
2026-05-05 18:23 51.03985 16.98993 1149 ft 128 kts 178°
2026-05-05 18:23 51.03391 16.98336 1420 ft 95 kts 277°
2026-05-05 18:23 51.03584 16.97497 1502 ft 79 kts 338°
2026-05-05 18:23 51.04074 16.97154 1446 ft 77 kts
2026-05-05 18:24 51.04596 16.97325 1372 ft 81 kts 37°
2026-05-05 18:24 51.04916 16.98103 1291 ft 92 kts 78°
2026-05-05 18:24 51.04643 16.98910 1406 ft 88 kts 185°
2026-05-05 18:24 51.04207 16.98627 1461 ft 53 kts 302°
2026-05-05 18:25 51.04315 16.98102 1453 ft 58 kts 346°
2026-05-05 18:25 51.04431 16.97976 1386 ft 63 kts 349°
2026-05-05 18:25 51.05093 16.97019 1324 ft 94 kts 296°
2026-05-05 18:25 51.05390 16.96070 1359 ft 98 kts 300°
2026-05-05 18:26 51.05735 16.95117 1443 ft 102 kts 300°
2026-05-05 18:26 51.06095 16.94122 1480 ft 104 kts 304°
2026-05-05 18:26 51.06484 16.93172 1487 ft 105 kts 294°
2026-05-05 18:26 51.06813 16.92106 1463 ft 110 kts 287°
2026-05-05 18:27 51.07111 16.90956 1442 ft 116 kts 279°
2026-05-05 18:27 51.07073 16.89689 1530 ft 118 kts 239°
2026-05-05 18:27 51.06578 16.88586 1541 ft 129 kts 213°
2026-05-05 18:27 51.05876 16.87686 1426 ft 131 kts 204°
2026-05-05 18:28 51.04235 16.86591 1401 ft 130 kts 183°
2026-05-05 18:28 51.03332 16.86219 1383 ft 137 kts 186°
2026-05-05 18:28 51.02425 16.85692 1375 ft 139 kts 195°
2026-05-05 18:29 51.01549 16.85050 1452 ft 135 kts 198°
2026-05-05 18:29 51.00744 16.84468 1689 ft 121 kts 196°
2026-05-05 18:29 50.99946 16.83964 1655 ft 126 kts 194°
2026-05-05 18:29 50.99118 16.83548 1543 ft 109 kts 140°
2026-05-05 18:30 50.98909 16.83770 1399 ft 31 kts 329°
2026-05-05 18:30 50.99189 16.83329 1295 ft 77 kts 303°
2026-05-05 18:30 50.99516 16.82559 1361 ft 91 kts 302°
2026-05-05 18:30 50.99947 16.81718 1364 ft 105 kts 310°
2026-05-05 18:31 51.00302 16.81139 1353 ft 111 kts 310°
2026-05-05 18:31 51.00819 16.80246 1418 ft 110 kts 308°
2026-05-05 18:31 51.01262 16.79283 1584 ft 107 kts 304°
2026-05-05 18:31 51.01642 16.78264 1749 ft 107 kts 295°
2026-05-05 18:32 51.01935 16.77144 1759 ft 114 kts 285°
2026-05-05 18:32 51.02130 16.75900 1595 ft 118 kts 268°
2026-05-05 18:32 51.02043 16.74599 1396 ft 121 kts 258°
2026-05-05 18:32 51.01941 16.73256 1308 ft 122 kts 269°
2026-05-05 18:33 51.01945 16.71932 1323 ft 118 kts 272°
2026-05-05 18:33 51.01932 16.70640 1354 ft 116 kts 271°
2026-05-05 18:33 51.01943 16.69368 1363 ft 114 kts 282°
2026-05-05 18:33 51.02188 16.68216 1388 ft 107 kts 303°
2026-05-05 18:34 51.02562 16.67250 1500 ft 100 kts 304°
2026-05-05 18:34 51.02844 16.66200 1415 ft 108 kts 288°
2026-05-05 18:34 51.02933 16.65040 1245 ft 99 kts 289°
2026-05-05 18:34 51.03219 16.64582 1323 ft 49 kts 42°
2026-05-05 18:35 51.03140 16.65080 1417 ft 66 kts 180°
2026-05-05 18:35 51.02845 16.64728 1466 ft 61 kts 299°
2026-05-05 18:35 51.03107 16.63972 1375 ft 91 kts 306°
2026-05-05 18:35 51.03434 16.63065 1507 ft 97 kts 289°
2026-05-05 18:36 51.03634 16.62027 1733 ft 102 kts 281°
2026-05-05 18:36 51.03792 16.60878 1742 ft 111 kts 281°
2026-05-05 18:36 51.04034 16.59683 1613 ft 114 kts 290°
2026-05-05 18:36 51.04540 16.59113 1467 ft 73 kts 46°
2026-05-05 18:37 51.04450 16.59465 1450 ft 50 kts 217°
2026-05-05 18:37 51.04066 16.58907 1356 ft 96 kts 220°
2026-05-05 18:37 51.03487 16.58244 1362 ft 111 kts 190°
2026-05-05 18:37 51.02731 16.57848 1321 ft 116 kts 200°
2026-05-05 18:38 51.02144 16.57123 1378 ft 102 kts 235°
2026-05-05 18:38 51.01728 16.56223 1413 ft 102 kts 231°
2026-05-05 18:38 51.01252 16.55334 1376 ft 109 kts 224°
2026-05-05 18:38 51.00924 16.54376 1362 ft 84 kts 305°
2026-05-05 18:39 51.01167 16.54363 1482 ft 56 kts 115°
2026-05-05 18:39 51.00819 16.54500 1534 ft 57 kts 249°
2026-05-05 18:39 51.00587 16.53951 1474 ft 70 kts 265°
2026-05-05 18:39 51.00476 16.53085 1411 ft 90 kts 255°
2026-05-05 18:40 51.00252 16.52090 1447 ft 101 kts 237°
2026-05-05 18:40 50.99896 16.51048 1369 ft 112 kts 238°
2026-05-05 18:40 50.99559 16.49903 1293 ft 116 kts 252°
2026-05-05 18:40 50.99423 16.48687 1453 ft 111 kts 258°
2026-05-05 18:41 50.99488 16.47491 1420 ft 109 kts 295°
2026-05-05 18:41 50.99745 16.46345 1476 ft 113 kts 267°
2026-05-05 18:41 50.99515 16.45239 1557 ft 109 kts 197°
2026-05-05 18:41 50.98860 16.44514 1289 ft 114 kts 240°
2026-05-05 18:42 50.98714 16.43361 1368 ft 107 kts 270°
2026-05-05 18:42 50.98755 16.42186 1473 ft 106 kts 281°
2026-05-05 18:42 50.98875 16.41013 1520 ft 111 kts 274°
2026-05-05 18:42 50.98832 16.39778 1547 ft 114 kts 249°
2026-05-05 18:43 50.98627 16.38571 1579 ft 112 kts 248°
2026-05-05 18:43 50.98277 16.37485 1709 ft 110 kts 217°
2026-05-05 18:43 50.97731 16.36791 1874 ft 79 kts 217°
2026-05-05 18:43 50.97159 16.36515 1719 ft 94 kts 163°
2026-05-05 18:44 50.96459 16.36625 1527 ft 108 kts 180°
2026-05-05 18:44 50.95716 16.36397 1384 ft 109 kts 221°
2026-05-05 18:44 50.95386 16.35482 1572 ft 90 kts 280°
2026-05-05 18:44 50.95554 16.34615 1786 ft 79 kts 333°
2026-05-05 18:45 50.96051 16.34207 1878 ft 87 kts 350°
2026-05-05 18:45 50.96682 16.34170 1847 ft 97 kts 17°
2026-05-05 18:45 50.97229 16.34873 1768 ft 111 kts 60°
2026-05-05 18:45 50.97251 16.36085 1847 ft 117 kts 109°
2026-05-05 18:46 50.96597 16.36730 1924 ft 118 kts 189°
2026-05-05 18:46 50.96111 16.35983 2066 ft 93 kts 295°
2026-05-05 18:46 50.96373 16.35114 2030 ft 90 kts 332°
2026-05-05 18:46 50.96913 16.34536 1852 ft 96 kts 352°
2026-05-05 18:47 50.97321 16.34837 2049 ft 62 kts 139°
2026-05-05 18:47 50.96931 16.35004 2072 ft 80 kts 210°
2026-05-05 18:47 50.96310 16.34572 1723 ft 108 kts 176°
2026-05-05 18:47 50.95597 16.34720 1860 ft 101 kts 127°
2026-05-05 18:48 50.95242 16.35518 1907 ft 83 kts 53°
2026-05-05 18:48 50.95557 16.36072 1857 ft 74 kts 335°
2026-05-05 18:48 50.96057 16.35694 1673 ft 92 kts 313°
2026-05-05 18:48 50.96615 16.35033 1383 ft 104 kts 334°
2026-05-05 18:49 50.97264 16.35053 1399 ft 99 kts 39°
2026-05-05 18:49 50.97231 16.36140 1354 ft 117 kts 120°
2026-05-05 18:49 50.96514 16.36781 1380 ft 122 kts 175°
2026-05-05 18:49 50.95827 16.36232 1561 ft 112 kts 245°
2026-05-05 18:50 50.95687 16.35063 1734 ft 108 kts 265°
2026-05-05 18:50 50.95492 16.33986 1924 ft 94 kts 194°
2026-05-05 18:50 50.94856 16.33845 1886 ft 101 kts 155°
2026-05-05 18:50 50.94123 16.33637 1762 ft 116 kts 223°
2026-05-05 18:51 50.94050 16.32579 1750 ft 99 kts 322°
2026-05-05 18:51 50.94634 16.32804 1766 ft 105 kts 51°
2026-05-05 18:51 50.94880 16.33959 1834 ft 113 kts 72°
2026-05-05 18:51 50.94999 16.35168 1880 ft 112 kts 80°
2026-05-05 18:52 50.94761 16.36380 1791 ft 127 kts 124°
2026-05-05 18:52 50.93919 16.36935 1718 ft 136 kts 168°
2026-05-05 18:52 50.93019 16.37308 1831 ft 130 kts 123°
2026-05-05 18:52 50.92586 16.38530 1794 ft 135 kts 107°
2026-05-05 18:53 50.91970 16.39653 1743 ft 140 kts 146°
2026-05-05 18:53 50.91081 16.39555 1807 ft 131 kts 222°
2026-05-05 18:53 50.90988 16.38345 1806 ft 119 kts 315°
2026-05-05 18:53 50.91650 16.38494 1715 ft 117 kts 61°
2026-05-05 18:54 50.91362 16.39795 1545 ft 135 kts 100°
2026-05-05 18:54 50.91119 16.41275 1562 ft 143 kts 88°
2026-05-05 18:54 50.91099 16.42792 1634 ft 132 kts 58°
2026-05-05 18:54 50.91667 16.43847 1608 ft 126 kts 37°
2026-05-05 18:55 50.92249 16.44879 1614 ft 127 kts 48°
2026-05-05 18:55 50.92752 16.46005 1651 ft 123 kts 48°
2026-05-05 18:55 50.93316 16.46980 1636 ft 121 kts 26°
2026-05-05 18:55 50.94098 16.47500 1594 ft 120 kts
2026-05-05 18:56 50.94837 16.48060 1542 ft 119 kts 43°
2026-05-05 18:56 50.95179 16.49168 1690 ft 108 kts 49°
2026-05-05 18:56 50.95726 16.49891 1755 ft 105 kts
2026-05-05 18:56 50.96466 16.49823 1706 ft 111 kts 352°
2026-05-05 18:57 50.97243 16.49767 1653 ft 112 kts 352°
2026-05-05 18:57 50.98005 16.49478 1654 ft 111 kts 333°
2026-05-05 18:57 50.98722 16.48990 1577 ft 116 kts 338°
2026-05-05 18:57 50.99484 16.49005 1606 ft 113 kts 34°
2026-05-05 18:58 50.99730 16.50181 1668 ft 116 kts 71°
2026-05-05 18:58 50.99959 16.51414 1662 ft 117 kts 58°
2026-05-05 18:58 51.00347 16.52561 1657 ft 119 kts 53°
2026-05-05 18:58 51.00648 16.53767 1701 ft 120 kts 68°
2026-05-05 18:59 51.00951 16.54976 1701 ft 117 kts 47°
2026-05-05 18:59 51.01515 16.55932 1618 ft 120 kts 40°
2026-05-05 18:59 51.02097 16.56857 1608 ft 115 kts 41°
2026-05-05 18:59 51.02669 16.57652 1744 ft 104 kts 35°
2026-05-05 19:00 51.03258 16.58239 1850 ft 100 kts 20°
2026-05-05 19:00 51.03912 16.58671 1656 ft 104 kts 21°
2026-05-05 19:00 51.04452 16.59435 1601 ft 107 kts 57°
2026-05-05 19:00 51.04623 16.60538 1822 ft 99 kts 78°
2026-05-05 19:01 51.04724 16.61607 1775 ft 98 kts 68°
2026-05-05 19:01 51.04942 16.62638 1754 ft 100 kts 67°
2026-05-05 19:01 51.05094 16.63731 1756 ft 102 kts 74°
2026-05-05 19:01 51.05169 16.64833 1813 ft 99 kts 78°
2026-05-05 19:02 51.05200 16.65934 1705 ft 99 kts 81°
2026-05-05 19:02 51.05249 16.66993 1809 ft 93 kts 76°
2026-05-05 19:02 51.05310 16.68007 1940 ft 94 kts 76°
2026-05-05 19:02 51.05372 16.69119 1638 ft 106 kts 77°
2026-05-05 19:03 51.05455 16.70292 1443 ft 109 kts 73°
2026-05-05 19:03 51.05556 16.71460 1445 ft 104 kts 71°
2026-05-05 19:03 51.05700 16.72569 1462 ft 100 kts 64°
2026-05-05 19:03 51.05926 16.73598 1526 ft 97 kts 63°
2026-05-05 19:04 51.06120 16.74639 1582 ft 100 kts 68°
2026-05-05 19:04 51.06283 16.75755 1553 ft 108 kts 70°
2026-05-05 19:04 51.06432 16.76966 1501 ft 113 kts 72°
2026-05-05 19:04 51.06563 16.78202 1440 ft 115 kts 72°
2026-05-05 19:05 51.06672 16.79461 1413 ft 114 kts 74°
2026-05-05 19:05 51.06735 16.80706 1475 ft 112 kts 79°
2026-05-05 19:05 51.06786 16.81921 1452 ft 112 kts 75°
2026-05-05 19:05 51.06968 16.83082 1480 ft 106 kts 68°
2026-05-05 19:06 51.07145 16.84227 1480 ft 108 kts 70°
2026-05-05 19:06 51.07282 16.85413 1452 ft 109 kts 73°
2026-05-05 19:06 51.07420 16.86581 1462 ft 107 kts 65°
2026-05-05 19:06 51.07605 16.87723 1411 ft 105 kts 69°
2026-05-05 19:07 51.07916 16.88775 1303 ft 108 kts 46°
2026-05-05 19:07 51.08510 16.89545 1019 ft 115 kts 22°
2026-05-05 19:07 51.09229 16.90078 855 ft 111 kts
2026-05-05 19:07 51.09820 16.89923 650 ft 60 kts 294°
2026-05-05 19:08 51.10035 16.89882 418 ft 25 kts 25°
2026-05-05 19:08 51.10148 16.89975 418 ft 15 kts 31°
2026-05-05 19:08 51.10260 16.90062 418 ft 21 kts 29°
2026-05-05 19:08 51.10392 16.90173 413 ft 18 kts 68°
2026-05-05 19:09 51.10398 16.90352 411 ft 12 kts 30°
2026-05-05 19:09 51.10439 16.90341 412 ft 7 kts 334°
2026-05-05 19:09 51.10439 16.90322 400 ft 2 kts 186°
2026-05-05 19:09 51.10436 16.90322 397 ft 0 kts 181°
2026-05-05 19:18 51.10429 16.90321 402 ft 4 kts 216°
2026-05-05 19:18 51.10403 16.90265 404 ft 8 kts 262°
2026-05-05 19:18 51.10396 16.90177 406 ft 9 kts 225°
2026-05-05 19:19 51.10329 16.90115 417 ft 14 kts 207°
2026-05-05 19:19 51.10223 16.90035 414 ft 18 kts 212°
2026-05-05 19:19 51.10112 16.89949 411 ft 19 kts 205°
2026-05-05 19:19 51.10018 16.89876 398 ft 7 kts 209°
2026-05-05 19:20 51.09954 16.89830 457 ft 24 kts 217°
2026-05-05 19:20 51.10011 16.89467 563 ft 61 kts 327°
2026-05-05 19:20 51.10463 16.89562 766 ft 81 kts 41°
2026-05-05 19:20 51.10608 16.90471 928 ft 91 kts 84°
2026-05-05 19:21 51.10559 16.91429 1000 ft 80 kts 66°
2026-05-05 19:21 51.10752 16.91587 1172 ft 32 kts 185°
2026-05-05 19:21 51.10506 16.91301 947 ft 54 kts 272°
2026-05-05 19:21 51.10676 16.91022 714 ft 50 kts 40°
2026-05-05 19:22 51.10560 16.91382 493 ft 42 kts 239°
2026-05-05 19:22 51.10624 16.91403 427 ft 34 kts 82°
2026-05-05 19:22 51.10670 16.91675 421 ft 14 kts 356°
2026-05-05 19:22 51.10715 16.91678 399 ft 0 kts 355°